Location: DARK SKY Beskydy - Park tmavé oblohy, www.darkskybeskydy.cz
(49.4926°N, 18.5016°E)
Time: 18:38:05
(UTC+01:00)

Altair - Visible Passes

Search period start: 14 March 2026 00:00
Search period end: 24 March 2026 00:00
Orbit: 1502 x 1682 km, 47.2° (Epoch: 13 March)

Date Brightness Start Highest point End Pass type
(mag) Time Alt. Az. Time Alt. Az. Time Alt. Az.
14 Mar 9.1 00:26:28 18° E 00:26:28 18° E 00:28:16 10° E visible
14 Mar 7.4 02:24:29 63° SSE 02:24:29 63° SSE 02:32:37 10° ESE visible
14 Mar 8.0 04:22:32 22° W 04:27:05 34° SW 04:35:06 10° SSE visible
14 Mar 8.7 19:41:00 10° SSE 19:44:22 17° SSE 19:44:22 17° SSE visible
14 Mar 9.1 21:40:58 10° SW 21:42:28 16° SW 21:42:28 16° SW visible
15 Mar 9.4 00:02:54 11° E 00:02:54 11° E 00:03:03 10° E visible
15 Mar 7.8 02:00:57 49° SE 02:00:57 49° SE 02:07:26 10° ESE visible
15 Mar 7.9 03:59:00 29° WSW 04:01:59 36° SW 04:10:08 10° SSE visible
15 Mar 8.6 19:16:26 10° SSE 19:21:46 17° SE 19:21:46 17° SE visible
15 Mar 8.5 21:15:53 10° SW 21:19:53 27° SSW 21:19:53 27° SSW visible
15 Mar9.723:39:29E23:39:29E23:18:01WSWvisible
16 Mar 8.3 01:37:32 35° ESE 01:37:32 35° ESE 01:42:15 10° ESE visible
16 Mar 7.7 03:35:36 37° SW 03:36:52 38° SW 03:45:09 10° SSE visible
16 Mar 8.7 18:51:58 10° SSE 18:56:43 15° SE 18:59:08 14° ESE visible
16 Mar 7.9 20:50:49 10° SW 20:57:15 38° S 20:57:15 38° S visible
16 Mar 9.2 22:54:12 10° WSW 22:55:22 15° WSW 22:55:22 15° WSW visible
17 Mar 8.8 01:14:17 22° ESE 01:14:17 22° ESE 01:17:03 10° ESE visible
17 Mar 7.7 03:12:21 40° SSW 03:12:21 40° SSW 03:20:09 10° SSE visible
17 Mar 8.8 05:10:53 10° WSW 05:14:22 13° SW 05:17:51 10° SSW visible
17 Mar 8.8 18:27:39 10° SSE 18:31:40 13° SE 18:35:38 10° E visible
17 Mar 7.7 20:25:46 10° SSW 20:34:22 42° SE 20:34:31 42° SE visible
17 Mar 8.6 22:28:59 10° WSW 22:32:37 27° WSW 22:32:37 27° WSW visible
18 Mar 9.3 00:51:11 13° ESE 00:51:11 13° ESE 00:51:51 10° ESE visible
18 Mar 8.0 02:49:16 36° S 02:49:16 36° S 02:55:08 10° SSE visible
18 Mar 8.7 04:47:22 13° WSW 04:49:19 14° SW 04:53:40 10° SSW visible
18 Mar 7.8 20:00:44 10° SSW 20:09:14 39° SE 20:11:38 34° ESE visible
18 Mar 7.9 22:03:47 10° WSW 22:09:44 44° SW 22:09:44 44° SW visible
19 Mar9.500:28:15ESE00:28:15ESE00:07:49Wvisible
19 Mar 8.5 02:26:21 26° SSE 02:26:21 26° SSE 02:30:05 10° SE visible
19 Mar 8.6 04:24:27 16° SW 04:24:27 16° SW 04:29:17 10° SSW visible
19 Mar 7.9 19:35:44 10° SSW 19:44:06 37° SE 19:48:37 24° E visible
19 Mar 7.4 21:38:35 10° WSW 21:46:41 64° SSW 21:46:41 64° SSW visible
19 Mar 9.1 23:43:03 10° W 23:44:46 17° W 23:44:46 17° W visible
20 Mar 9.0 02:03:34 16° SE 02:03:34 16° SE 02:05:02 10° SE visible
20 Mar 8.7 04:01:41 16° SSW 04:01:41 16° SSW 04:04:45 10° SSW visible
20 Mar 8.0 19:10:45 10° SSW 19:18:59 35° SE 19:25:25 16° E visible
20 Mar 7.3 21:13:23 10° WSW 21:22:41 68° SSE 21:23:29 65° SE visible
20 Mar 8.6 23:17:49 10° W 23:21:33 28° W 23:21:33 28° W visible
21 Mar9.501:40:54SE01:40:54SE01:19:37WNWvisible
21 Mar 9.0 03:39:00 13° SSW 03:39:00 13° SSW 03:40:10 10° S visible
21 Mar 8.1 18:45:47 10° SSW 18:53:52 33° SE 19:01:45 10° E visible
21 Mar 7.3 20:48:11 10° WSW 20:57:28 66° SSE 21:00:08 48° ESE visible
21 Mar 8.1 22:52:34 10° W 22:58:11 42° W 22:58:11 42° W visible
22 Mar 8.2 18:20:51 10° SSW 18:28:46 30° SE 18:36:28 10° E visible
22 Mar 7.4 20:23:00 10° WSW 20:32:18 64° SSE 20:36:39 34° E visible
22 Mar 7.6 22:27:20 10° W 22:34:41 60° WSW 22:34:41 60° WSW visible
23 Mar 9.3 00:31:58 10° W 00:32:43 13° W 00:32:43 13° W visible
23 Mar 7.4 19:57:49 10° SW 20:07:06 62° SSE 20:13:02 24° E visible
23 Mar 7.2 22:02:05 10° W 22:11:04 78° SSW 22:11:04 78° SSW visible
